Time,TemperatureF,DewpointF,PressureIn,WindDirection,WindDirectionDegrees,WindSpeedMPH,WindSpeedGustMPH,Humidity,HourlyPrecipIn,Conditions,Clouds,dailyrainin,SoftwareType,DateUTC
2013-06-15 00:08:00,58.0,46.0,30.01,SSW,202,1.0,1.8,64,0.00,,,0.00,WUHU216HW,2013-06-15 05:08:00,
2013-06-15 00:18:00,57.8,45.8,30.01,SE,132,0.8,1.6,64,0.00,,,0.00,WUHU216HW,2013-06-15 05:18:00,
2013-06-15 00:28:00,57.7,45.7,30.02,ENE,73,1.1,2.5,64,0.00,,,0.00,WUHU216HW,2013-06-15 05:28:00,
2013-06-15 00:38:00,57.8,45.8,30.02,ENE,74,1.7,2.7,64,0.00,,,0.00,WUHU216HW,2013-06-15 05:38:00,
2013-06-15 00:48:00,57.8,45.8,30.02,ENE,74,1.2,2.9,64,0.00,,,0.00,WUHU216HW,2013-06-15 05:48:00,
2013-06-15 00:58:00,57.7,45.7,30.03,East,86,0.6,1.8,64,0.00,,,0.00,WUHU216HW,2013-06-15 05:58:00,
2013-06-15 01:08:00,57.7,45.7,30.02,NNE,31,0.7,1.1,64,0.00,,,0.00,WUHU216HW,2013-06-15 06:08:00,
2013-06-15 01:18:00,57.7,46.6,30.02,SSW,207,0.7,2.0,66,0.00,,,0.00,WUHU216HW,2013-06-15 06:18:00,
2013-06-15 01:28:00,57.5,46.0,30.02,ENE,77,0.6,0.7,65,0.00,,,0.00,WUHU216HW,2013-06-15 06:28:00,
2013-06-15 01:38:00,57.3,46.2,30.01,SSE,164,0.4,0.7,66,0.00,,,0.00,WUHU216HW,2013-06-15 06:38:00,
2013-06-15 01:48:00,57.1,46.4,30.00,SSE,158,0.3,0.4,67,0.00,,,0.00,WUHU216HW,2013-06-15 06:48:00,
2013-06-15 01:58:00,56.8,46.1,29.99,SE,144,0.4,0.7,67,0.00,,,0.00,WUHU216HW,2013-06-15 06:58:00,
2013-06-15 02:08:00,56.8,46.9,29.99,WNW,302,0.7,1.1,69,0.00,,,0.00,WUHU216HW,2013-06-15 07:08:00,
2013-06-15 02:18:00,57.1,46.4,30.00,SW,218,0.6,1.8,67,0.00,,,0.00,WUHU216HW,2013-06-15 07:18:00,
2013-06-15 02:28:00,56.9,46.2,30.01,NNW,348,0.3,0.4,67,0.00,,,0.00,WUHU216HW,2013-06-15 07:28:00,
2013-06-15 02:38:00,56.8,46.1,30.01,NE,51,0.8,1.1,67,0.00,,,0.00,WUHU216HW,2013-06-15 07:38:00,
2013-06-15 02:49:00,56.8,46.1,30.02,WSW,253,0.8,1.3,67,0.00,,,0.00,WUHU216HW,2013-06-15 07:49:00,
2013-06-15 02:59:00,56.6,45.9,30.02,West,270,0.7,0.7,67,0.00,,,0.00,WUHU216HW,2013-06-15 07:59:00,
2013-06-15 03:09:00,56.8,46.9,30.04,WSW,249,1.2,2.0,69,0.00,,,0.00,WUHU216HW,2013-06-15 08:09:00,
2013-06-15 03:19:00,56.9,47.0,30.05,WSW,248,0.4,1.1,69,0.00,,,0.00,WUHU216HW,2013-06-15 08:19:00,
2013-06-15 03:29:00,57.1,47.2,30.06,WSW,246,0.6,0.9,69,0.00,,,0.00,WUHU216HW,2013-06-15 08:29:00,
2013-06-15 03:39:00,56.8,47.6,30.06,WSW,237,1.4,3.1,71,0.02,,,0.02,WUHU216HW,2013-06-15 08:39:00,
2013-06-15 03:49:00,56.0,47.6,30.06,SW,218,1.4,2.5,73,0.02,,,0.02,WUHU216HW,2013-06-15 08:49:00,
2013-06-15 03:59:00,55.3,47.6,30.06,SSE,152,0.4,0.7,75,0.04,,,0.04,WUHU216HW,2013-06-15 08:59:00,
2013-06-15 04:09:00,55.0,48.0,30.05,SE,144,0.3,0.4,77,0.07,,,0.07,WUHU216HW,2013-06-15 09:09:00,
2013-06-15 04:19:00,54.8,48.5,30.04,SSE,165,0.8,1.3,79,0.11,,,0.11,WUHU216HW,2013-06-15 09:19:00,
2013-06-15 04:29:00,54.6,48.3,30.03,SE,139,0.7,1.3,79,0.15,,,0.15,WUHU216HW,2013-06-15 09:29:00,
2013-06-15 04:39:00,54.4,48.4,30.02,East,101,0.7,1.3,80,0.14,,,0.16,WUHU216HW,2013-06-15 09:39:00,
2013-06-15 04:49:00,54.2,48.8,30.00,ENE,65,0.7,1.3,82,0.15,,,0.17,WUHU216HW,2013-06-15 09:49:00,
2013-06-15 04:59:00,54.4,50.0,30.00,SW,226,0.5,0.9,85,0.13,,,0.17,WUHU216HW,2013-06-15 09:59:00,
2013-06-15 05:09:00,54.8,50.1,30.00,South,191,1.0,2.2,84,0.10,,,0.17,WUHU216HW,2013-06-15 10:09:00,
2013-06-15 05:19:00,55.1,50.4,30.00,South,173,0.7,1.3,84,0.09,,,0.20,WUHU216HW,2013-06-15 10:19:00,
2013-06-15 05:29:00,55.1,50.7,30.00,NW,325,0.7,1.3,85,0.06,,,0.21,WUHU216HW,2013-06-15 10:29:00,
2013-06-15 05:39:00,55.5,51.1,30.00,South,181,1.0,1.8,85,0.05,,,0.21,WUHU216HW,2013-06-15 10:39:00,
2013-06-15 05:49:00,55.7,51.9,29.99,SSE,166,0.6,1.1,87,0.04,,,0.21,WUHU216HW,2013-06-15 10:49:00,
2013-06-15 05:59:00,55.9,52.4,29.99,SE,142,1.0,1.6,88,0.04,,,0.21,WUHU216HW,2013-06-15 10:59:00,
2013-06-15 06:09:00,56.2,52.7,29.98,SSW,192,1.1,2.5,88,0.05,,,0.23,WUHU216HW,2013-06-15 11:09:00,
2013-06-15 06:19:00,56.6,53.4,29.99,East,79,1.1,2.2,89,0.03,,,0.23,WUHU216HW,2013-06-15 11:19:00,
2013-06-15 06:29:00,56.9,53.4,29.98,SSE,159,1.0,2.5,88,0.02,,,0.23,WUHU216HW,2013-06-15 11:29:00,
2013-06-15 06:39:00,57.3,54.1,29.98,WSW,238,0.9,2.0,89,0.02,,,0.23,WUHU216HW,2013-06-15 11:39:00,
2013-06-15 06:49:00,57.5,54.3,29.98,SE,128,1.0,2.0,89,0.02,,,0.23,WUHU216HW,2013-06-15 11:49:00,
2013-06-15 06:59:00,57.7,54.8,29.97,SSW,196,1.2,2.2,90,0.02,,,0.23,WUHU216HW,2013-06-15 11:59:00,
2013-06-15 07:09:00,57.8,55.2,29.97,SW,223,1.1,2.7,91,0.00,,,0.23,WUHU216HW,2013-06-15 12:09:00,
2013-06-15 07:19:00,58.2,55.3,29.97,SW,236,0.8,1.8,90,0.01,,,0.24,WUHU216HW,2013-06-15 12:19:00,
2013-06-15 07:29:00,58.6,55.9,29.97,North,351,0.7,1.8,91,0.01,,,0.24,WUHU216HW,2013-06-15 12:29:00,
2013-06-15 07:39:00,58.9,56.2,29.97,East,92,0.4,1.1,91,0.01,,,0.24,WUHU216HW,2013-06-15 12:39:00,
2013-06-15 07:49:00,59.3,56.6,29.97,NNW,331,0.3,1.6,91,0.01,,,0.24,WUHU216HW,2013-06-15 12:49:00,
2013-06-15 07:59:00,59.8,56.8,29.96,ENE,77,0.4,1.1,90,0.01,,,0.24,WUHU216HW,2013-06-15 12:59:00,
2013-06-15 08:09:00,60.5,57.8,29.96,NE,55,0.3,2.5,91,0.01,,,0.24,WUHU216HW,2013-06-15 13:09:00,
2013-06-15 08:20:00,60.6,57.4,29.96,ESE,102,0.5,1.1,89,0.00,,,0.24,WUHU216HW,2013-06-15 13:20:00,
2013-06-15 08:30:00,60.8,57.6,29.95,South,184,0.4,1.8,89,0.00,,,0.24,WUHU216HW,2013-06-15 13:30:00,
2013-06-15 08:40:00,61.1,57.9,29.95,ENE,74,0.6,2.5,89,0.00,,,0.24,WUHU216HW,2013-06-15 13:40:00,
2013-06-15 08:50:00,61.5,58.6,29.93,SE,137,0.5,1.1,90,0.00,,,0.24,WUHU216HW,2013-06-15 13:50:00,
2013-06-15 09:00:00,62.4,59.2,29.93,SSE,147,0.7,2.5,89,0.00,,,0.24,WUHU216HW,2013-06-15 14:00:00,
2013-06-15 09:10:00,62.9,59.7,29.94,SSW,207,1.6,3.6,89,0.00,,,0.24,WUHU216HW,2013-06-15 14:10:00,
2013-06-15 09:20:00,63.5,60.3,29.94,SSW,195,0.8,1.8,89,0.00,,,0.24,WUHU216HW,2013-06-15 14:20:00,
2013-06-15 09:30:00,64.0,60.8,29.94,SE,141,0.7,2.0,89,0.00,,,0.24,WUHU216HW,2013-06-15 14:30:00,
2013-06-15 09:40:00,64.9,61.1,29.95,ENE,78,1.3,4.0,87,0.00,,,0.24,WUHU216HW,2013-06-15 14:40:00,
2013-06-15 09:50:00,66.2,62.0,29.94,SSW,193,1.4,2.0,86,0.00,,,0.24,WUHU216HW,2013-06-15 14:50:00,
2013-06-15 10:00:00,66.0,61.8,29.95,WSW,246,0.9,2.0,86,0.00,,,0.24,WUHU216HW,2013-06-15 15:00:00,
2013-06-15 10:10:00,66.0,61.8,29.96,SE,137,1.1,1.8,86,0.00,,,0.24,WUHU216HW,2013-06-15 15:10:00,
2013-06-15 10:20:00,66.5,61.3,29.96,North,356,1.1,5.4,83,0.00,,,0.24,WUHU216HW,2013-06-15 15:20:00,
2013-06-15 10:30:00,66.7,62.2,29.97,ENE,75,0.5,1.1,85,0.00,,,0.24,WUHU216HW,2013-06-15 15:30:00,
2013-06-15 10:40:00,66.4,61.6,29.97,SW,217,0.7,1.8,84,0.00,,,0.24,WUHU216HW,2013-06-15 15:40:00,
2013-06-15 10:50:00,66.5,61.7,29.97,ESE,103,0.7,1.6,84,0.00,,,0.24,WUHU216HW,2013-06-15 15:50:00,
2013-06-15 11:00:00,67.1,62.3,29.96,SE,131,0.7,2.2,84,0.00,,,0.24,WUHU216HW,2013-06-15 16:00:00,
2013-06-15 11:10:00,68.0,62.8,29.95,ENE,67,1.6,4.5,83,0.00,,,0.24,WUHU216HW,2013-06-15 16:10:00,
2013-06-15 11:20:00,70.3,62.3,29.95,ENE,67,2.4,4.3,75,0.00,,,0.24,WUHU216HW,2013-06-15 16:20:00,
2013-06-15 11:30:00,72.3,65.3,29.96,NE,41,1.9,5.1,78,0.00,,,0.24,WUHU216HW,2013-06-15 16:30:00,
2013-06-15 11:40:00,73.9,66.1,29.96,ESE,117,1.0,2.0,76,0.00,,,0.24,WUHU216HW,2013-06-15 16:40:00,
2013-06-15 11:50:00,74.6,65.3,29.96,WSW,240,1.2,2.7,72,0.00,,,0.24,WUHU216HW,2013-06-15 16:50:00,
2013-06-15 12:00:00,72.7,63.5,29.97,SW,224,2.1,4.5,72,0.00,,,0.24,WUHU216HW,2013-06-15 17:00:00,
2013-06-15 12:10:00,72.1,64.8,29.96,SW,215,0.8,1.6,77,0.00,,,0.24,WUHU216HW,2013-06-15 17:10:00,
2013-06-15 12:20:00,73.2,65.8,29.96,SW,224,1.0,2.5,77,0.00,,,0.24,WUHU216HW,2013-06-15 17:20:00,
2013-06-15 12:30:00,72.8,64.7,29.96,WSW,246,1.0,2.7,75,0.00,,,0.24,WUHU216HW,2013-06-15 17:30:00,
2013-06-15 12:40:00,72.5,64.8,29.96,SW,223,1.7,2.9,76,0.00,,,0.24,WUHU216HW,2013-06-15 17:40:00,
2013-06-15 12:50:00,73.2,65.5,29.96,SW,227,1.2,3.1,76,0.00,,,0.24,WUHU216HW,2013-06-15 17:50:00,
2013-06-15 13:00:00,73.2,65.5,29.95,South,173,0.9,1.8,76,0.00,,,0.24,WUHU216HW,2013-06-15 18:00:00,
2013-06-15 13:10:00,74.1,66.3,29.96,WNW,292,0.7,1.8,76,0.00,,,0.24,WUHU216HW,2013-06-15 18:10:00,
2013-06-15 13:20:00,75.4,66.9,29.96,WSW,249,1.0,2.0,74,0.00,,,0.24,WUHU216HW,2013-06-15 18:20:00,
2013-06-15 13:30:00,75.9,67.3,29.96,West,265,1.3,2.5,74,0.00,,,0.24,WUHU216HW,2013-06-15 18:30:00,
2013-06-15 13:40:00,75.2,66.7,29.97,SSW,207,2.0,4.0,74,0.00,,,0.24,WUHU216HW,2013-06-15 18:40:00,
2013-06-15 13:50:00,74.3,66.2,29.96,SSW,206,1.3,2.5,75,0.00,,,0.24,WUHU216HW,2013-06-15 18:50:00,
2013-06-15 14:00:00,74.8,66.6,29.96,South,175,1.2,2.5,75,0.00,,,0.24,WUHU216HW,2013-06-15 19:00:00,
2013-06-15 14:10:00,76.4,67.8,29.94,SSW,198,1.0,1.8,74,0.00,,,0.24,WUHU216HW,2013-06-15 19:10:00,
2013-06-15 14:20:00,76.4,66.7,29.94,SW,233,1.4,2.0,71,0.00,,,0.24,WUHU216HW,2013-06-15 19:20:00,
2013-06-15 14:30:00,76.3,67.0,29.94,SSE,168,1.1,3.1,72,0.00,,,0.24,WUHU216HW,2013-06-15 19:30:00,
2013-06-15 14:40:00,76.4,67.4,29.94,SW,215,1.3,2.5,73,0.00,,,0.24,WUHU216HW,2013-06-15 19:40:00,
2013-06-15 14:50:00,75.7,66.0,29.93,SSW,198,1.6,2.7,71,0.00,,,0.24,WUHU216HW,2013-06-15 19:50:00,
2013-06-15 15:00:00,75.0,66.5,29.93,SSW,198,1.2,2.0,74,0.00,,,0.24,WUHU216HW,2013-06-15 20:00:00,
2013-06-15 15:11:00,75.0,66.8,29.93,SW,230,0.6,1.6,75,0.00,,,0.24,WUHU216HW,2013-06-15 20:11:00,
2013-06-15 15:21:00,75.9,67.7,29.93,SSW,198,1.2,2.5,75,0.00,,,0.24,WUHU216HW,2013-06-15 20:21:00,
2013-06-15 15:31:00,76.4,67.8,29.91,SW,226,1.2,1.8,74,0.00,,,0.24,WUHU216HW,2013-06-15 20:31:00,
2013-06-15 15:41:00,76.3,67.3,29.91,SSW,208,0.4,1.1,73,0.00,,,0.24,WUHU216HW,2013-06-15 20:41:00,
2013-06-15 15:51:00,76.1,67.2,29.90,SSE,163,1.1,2.2,73,0.00,,,0.24,WUHU216HW,2013-06-15 20:51:00,
2013-06-15 16:01:00,76.3,67.3,29.90,SSW,202,1.2,2.0,73,0.00,,,0.24,WUHU216HW,2013-06-15 21:01:00,
2013-06-15 16:11:00,76.3,67.3,29.89,SSW,194,1.4,1.8,73,0.00,,,0.24,WUHU216HW,2013-06-15 21:11:00,
2013-06-15 16:21:00,76.1,67.5,29.89,South,187,2.0,3.8,74,0.00,,,0.24,WUHU216HW,2013-06-15 21:21:00,
2013-06-15 16:31:00,76.4,67.8,29.89,SW,219,1.1,1.8,74,0.00,,,0.24,WUHU216HW,2013-06-15 21:31:00,
2013-06-15 16:41:00,76.4,67.8,29.88,SSW,197,1.4,3.6,74,0.00,,,0.24,WUHU216HW,2013-06-15 21:41:00,
2013-06-15 16:51:00,76.4,67.1,29.87,NNW,340,1.5,1.8,72,0.00,,,0.24,WUHU216HW,2013-06-15 21:51:00,
2013-06-15 17:01:00,76.6,68.0,29.86,SSW,200,1.3,1.8,74,0.00,,,0.24,WUHU216HW,2013-06-15 22:01:00,
2013-06-15 17:11:00,76.6,67.2,29.86,South,184,1.4,4.0,72,0.00,,,0.24,WUHU216HW,2013-06-15 22:11:00,
2013-06-15 17:21:00,76.4,67.1,29.85,SE,141,1.5,3.4,72,0.00,,,0.24,WUHU216HW,2013-06-15 22:21:00,
2013-06-15 17:31:00,76.6,68.0,29.85,SSW,197,1.4,2.7,74,0.00,,,0.24,WUHU216HW,2013-06-15 22:31:00,
2013-06-15 17:41:00,75.7,67.1,29.85,SSE,159,1.7,4.0,74,0.00,,,0.24,WUHU216HW,2013-06-15 22:41:00,
2013-06-15 17:51:00,76.3,67.3,29.83,SSE,167,1.6,2.5,73,0.00,,,0.24,WUHU216HW,2013-06-15 22:51:00,
2013-06-15 18:01:00,76.3,67.3,29.83,SW,215,1.5,3.4,73,0.00,,,0.24,WUHU216HW,2013-06-15 23:01:00,
2013-06-15 18:12:00,76.4,67.8,29.84,West,270,1.1,2.2,74,0.00,,,0.24,WUHU216HW,2013-06-15 23:12:00,
2013-06-15 18:22:00,75.7,67.5,29.84,SSE,165,1.2,2.5,75,0.00,,,0.24,WUHU216HW,2013-06-15 23:22:00,
2013-06-15 18:32:00,75.4,67.6,29.84,SSE,152,1.1,2.9,76,0.00,,,0.24,WUHU216HW,2013-06-15 23:32:00,
2013-06-15 18:42:00,75.4,67.6,29.83,WSW,253,1.5,3.4,76,0.00,,,0.24,WUHU216HW,2013-06-15 23:42:00,
2013-06-15 18:52:00,75.5,67.7,29.82,ESE,122,0.9,1.8,76,0.00,,,0.24,WUHU216HW,2013-06-15 23:52:00,
2013-06-15 19:02:00,75.5,67.3,29.83,SE,133,0.5,1.1,75,0.00,,,0.24,WUHU216HW,2013-06-16 00:02:00,
2013-06-15 19:12:00,75.5,67.3,29.83,SSE,153,0.7,2.0,75,0.00,,,0.24,WUHU216HW,2013-06-16 00:12:00,
2013-06-15 19:22:00,74.6,67.2,29.82,SSE,158,1.2,2.0,77,0.00,,,0.24,WUHU216HW,2013-06-16 00:22:00,
2013-06-15 19:32:00,73.9,66.5,29.81,South,178,0.5,1.3,77,0.00,,,0.24,WUHU216HW,2013-06-16 00:32:00,
2013-06-15 19:42:00,73.2,66.5,29.80,NE,48,0.3,0.7,79,0.00,,,0.24,WUHU216HW,2013-06-16 00:42:00,
2013-06-15 19:52:00,72.7,66.4,29.81,SW,225,0.7,1.8,80,0.00,,,0.24,WUHU216HW,2013-06-16 00:52:00,
2013-06-15 20:02:00,72.5,66.9,29.82,SSE,158,0.5,1.6,82,0.00,,,0.24,WUHU216HW,2013-06-16 01:02:00,
2013-06-15 20:12:00,72.1,66.2,29.82,ESE,103,0.2,0.7,81,0.00,,,0.24,WUHU216HW,2013-06-16 01:12:00,
2013-06-15 20:22:00,71.9,65.6,29.82,NNW,345,0.2,1.1,80,0.00,,,0.24,WUHU216HW,2013-06-16 01:22:00,
2013-06-15 20:32:00,71.9,66.0,29.82,SSE,161,0.3,1.3,81,0.00,,,0.24,WUHU216HW,2013-06-16 01:32:00,
2013-06-15 20:42:00,71.6,66.0,29.82,SSE,159,0.3,1.3,82,0.00,,,0.24,WUHU216HW,2013-06-16 01:42:00,
2013-06-15 20:52:00,71.4,65.8,29.82,ENE,65,0.2,1.1,82,0.00,,,0.24,WUHU216HW,2013-06-16 01:52:00,
2013-06-15 21:02:00,71.0,65.4,29.82,SSE,162,0.1,0.4,82,0.00,,,0.24,WUHU216HW,2013-06-16 02:02:00,
2013-06-15 21:12:00,70.7,65.5,29.81,North,0,0.0,0.0,83,0.00,,,0.24,WUHU216HW,2013-06-16 02:12:00,
2013-06-15 21:22:00,70.3,65.1,29.81,South,176,0.3,0.7,83,0.01,,,0.25,WUHU216HW,2013-06-16 02:22:00,
2013-06-15 21:32:00,70.1,65.2,29.82,WNW,285,0.3,1.1,84,0.05,,,0.29,WUHU216HW,2013-06-16 02:32:00,
2013-06-15 21:42:00,70.0,66.1,29.81,NNE,16,0.3,0.9,87,0.07,,,0.31,WUHU216HW,2013-06-16 02:42:00,
2013-06-15 21:52:00,70.0,66.4,29.82,WSW,251,1.4,3.4,88,0.08,,,0.32,WUHU216HW,2013-06-16 02:52:00,
2013-06-15 22:02:00,69.6,66.0,29.82,SW,216,2.0,3.4,88,0.08,,,0.32,WUHU216HW,2013-06-16 03:02:00,
2013-06-15 22:12:00,69.4,66.1,29.82,SW,220,2.3,3.6,89,0.08,,,0.32,WUHU216HW,2013-06-16 03:12:00,
2013-06-15 22:22:00,69.2,66.2,29.81,WSW,239,1.8,3.4,90,0.08,,,0.33,WUHU216HW,2013-06-16 03:22:00,
2013-06-15 22:32:00,69.1,66.2,29.81,SW,223,0.9,1.3,90,0.04,,,0.33,WUHU216HW,2013-06-16 03:32:00,
2013-06-15 22:42:00,67.1,63.5,29.85,WNW,299,5.3,10.1,88,0.08,,,0.39,WUHU216HW,2013-06-16 03:42:00,
2013-06-15 22:52:00,66.0,62.8,29.84,West,275,3.5,8.1,89,0.09,,,0.41,WUHU216HW,2013-06-16 03:52:00,
2013-06-15 23:02:00,65.8,62.9,29.83,NNW,348,1.9,4.0,90,0.10,,,0.42,WUHU216HW,2013-06-16 04:02:00,
2013-06-15 23:12:00,65.6,62.4,29.83,NW,310,2.1,2.9,89,0.10,,,0.42,WUHU216HW,2013-06-16 04:12:00,
2013-06-15 23:22:00,65.6,62.4,29.83,NW,307,1.5,2.0,89,0.09,,,0.42,WUHU216HW,2013-06-16 04:22:00,
2013-06-15 23:32:00,65.6,62.7,29.83,NW,309,1.8,3.6,90,0.09,,,0.42,WUHU216HW,2013-06-16 04:32:00,
2013-06-15 23:42:00,65.6,62.4,29.83,West,268,1.8,3.4,89,0.03,,,0.42,WUHU216HW,2013-06-16 04:42:00,
2013-06-15 23:52:00,65.5,62.3,29.83,WSW,239,1.1,2.7,89,0.01,,,0.42,WUHU216HW,2013-06-16 04:52:00,